Regional Weather Roundup
Issued by NWS

Home | Current Version | Previous Version | Text Only | Print | Product List | Glossary On
Versions: 1 2 3 4 5 6 7 8 9 10 11 12 13 14 15 16 17 18 19 20 21 22 23 24 25 26 27 28 29 30 31 32 33 34 35 36 37 38 39 40 41 42 43 44 45 46 47 48 49 50
109
ASUS43 KTOP 211059
RWRKS

WEATHER ROUNDUP FOR KANSAS
NATIONAL WEATHER SERVICE GOODLAND KS
500 AM CST TUE FEB 21 2017

NOTE:  "FAIR" INDICATES FEW OR NO CLOUDS BELOW 12,000 FEET WITH NO
SIGNIFICANT WEATHER AND/OR OBSTRUCTIONS TO VISIBILITY.

KSZ001>006-013>018-027>032-041>047-211200-
NORTHWEST KANSAS

CITY           SKY/WX    TMP DP  RH WIND       PRES   REMARKS
GOODLAND       CLOUDY    43  14  31 SW17      29.99S
HAYS           CLOUDY    27  24  89 NW7       30.04R
HILL CITY      CLOUDY    28  24  85 SW5       30.02R
RUSSELL        CLOUDY    31  27  85 SW8       30.02R
$$

KSZ061>065-074>080-084>089-211200-
SOUTHWEST KANSAS

CITY           SKY/WX    TMP DP  RH WIND       PRES   REMARKS
DODGE CITY     CLOUDY    36  22  56 SW5       30.05S
ELKHART          N/A     39  12  33 SW9         N/A
GARDEN CITY    CLOUDY    31  16  54 W8        30.04F
GREAT BEND     CLOUDY    29  26  89 S3        30.04R
LIBERAL        CLOUDY    30  12  47 W5        30.06F
$$

KSZ066>073-081>083-090>101-211200-
SOUTHEAST KANSAS

CITY           SKY/WX    TMP DP  RH WIND       PRES   REMARKS
CHANUTE        CLEAR     48  45  89 NW9       29.93R
COFFEYVILLE    FOG       46  46 100 NW8       29.93R VSB 1/2
HUTCHINSON     CLOUDY    34  32  92 NW7       30.01R
MEDICINE LODGE   N/A     35  31  85 N6        30.03R
NEWTON         CLEAR     41  38  89 NW6       30.01R
PARSONS        PTCLDY    46  45  96 N8        29.93S FOG
WICHITA INTL   CLEAR     40  37  89 NW8       30.00R
WICHITA JABRA  CLEAR     43  40  89 NW8       29.99R
WINFIELD       CLEAR     42  40  92 CALM      29.99R
$$

KSZ007>012-019>026-033>040-048>060-102>105-211200-
NORTHEAST KANSAS

CITY           SKY/WX    TMP DP  RH WIND       PRES   REMARKS
CONCORDIA      CLOUDY    36  34  92 W9        30.02R
EMPORIA        CLEAR     44  41  89 N7        29.97R
LAWRENCE       PTCLDY    43  42  97 NW6       29.96S
MANHATTAN      PTCLDY    32  30  92 CALM      29.99R
OLATHE IND     MOCLDY    50  46  86 N10       29.95R
OLATHE EXE     MOCLDY    51  47  86 N12       29.94R
SALINA         CLOUDY    35  31  85 NW6       30.02R
TOPEKA BILLARD CLEAR     45  41  86 NW6       29.97S
TOPEKA FORBES  CLEAR     45  42  89 N5        29.97S
$$




USA.gov is the U.S. government's official web portal to all federal, state and local government web resources and services.